This is the latest recevied weather packets stored in our database for station/object WD0REW. If no packets are shown the sender has not sent any weather packets the latest 1 day(s).
| Time | Temp. | Humidity | Pressure | Rain* | Wind** | Luminosity | Snow |
|---|---|---|---|---|---|---|---|
| 1778063933 | 7.22° C | 89% | 1015.8 hPa | 0 mm | 0.89 m/s, 344° | 0 W/m² | - |
| 1778063631 | 7.22° C | 89% | 1016 hPa | 0 mm | 0.45 m/s, 1° | 0 W/m² | - |
| 1778063328 | 7.22° C | 88% | 1015.8 hPa | 0 mm | 0.89 m/s, 354° | 0 W/m² | - |
| 1778063026 | 7.22° C | 88% | 1015.7 hPa | 0 mm | 0.45 m/s, 5° | 0 W/m² | - |
| 1778062723 | 7.22° C | 87% | 1015.7 hPa | 0 mm | 0 m/s | 0 W/m² | - |
| 1778062419 | 7.22° C | 87% | 1015.8 hPa | 0 mm | 0 m/s | 0 W/m² | - |
| 1778062117 | 7.22° C | 87% | 1015.4 hPa | 0 mm | 0.45 m/s, 7° | 0 W/m² | - |
| 1778061815 | 7.22° C | 86% | 1015.2 hPa | 0 mm | 0.45 m/s, 0° | 0 W/m² | - |
| 1778061513 | 7.22° C | 86% | 1015.2 hPa | 0 mm | 0.45 m/s, 348° | 0 W/m² | - |
| 1778061210 | 7.22° C | 86% | 1015.9 hPa | 0 mm | 0.45 m/s, 359° | 0 W/m² | - |
| 1778060906 | 7.22° C | 85% | 1015.8 hPa | 0 mm | 0 m/s | 0 W/m² | - |
| 1778060605 | 7.22° C | 84% | 1015.3 hPa | 0 mm | 0.89 m/s, 350° | 0 W/m² | - |
| 1778060303 | 7.22° C | 85% | 1014.5 hPa | 0 mm | 0 m/s | 0 W/m² | - |
| 1778060000 | 7.22° C | 85% | 1014.9 hPa | 0 mm | 0.45 m/s, 10° | 0 W/m² | - |
| 1778059698 | 7.22° C | 84% | 1015.3 hPa | 0 mm | 0.45 m/s, 350° | 0 W/m² | - |
| 1778059395 | 7.22° C | 85% | 1015.5 hPa | 0 mm | 0 m/s | 0 W/m² | - |
| 1778059092 | 7.22° C | 85% | 1015.6 hPa | 0 mm | 0 m/s | 0 W/m² | - |
| 1778058790 | 7.22° C | 84% | 1015.1 hPa | 0 mm | 0.45 m/s, 351° | 0 W/m² | - |
| 1778058487 | 7.22° C | 83% | 1014.4 hPa | 0 mm | 0.45 m/s, 355° | 0 W/m² | - |
| 1778058184 | 7.22° C | 84% | 1014.5 hPa | 0 mm | 0 m/s | 0 W/m² | - |
| 1778057889 | 7.22° C | 85% | 1014.3 hPa | 0 mm | 0.45 m/s, 356° | 0 W/m² | - |
| 1778057577 | 7.22° C | 84% | 1014.7 hPa | 0 mm | 0 m/s | 0 W/m² | - |
| 1778057274 | 7.22° C | 84% | 1014.5 hPa | 0 mm | 0.45 m/s, 1° | 0 W/m² | - |
| 1778056970 | 7.22° C | 84% | 1013.8 hPa | 0 mm | 0.45 m/s, 53° | 0 W/m² | - |
| 1778056667 | 7.22° C | 84% | 1013.4 hPa | 0 mm | 0.45 m/s, 358° | 0 W/m² | - |
* Rain latest hour (hover to see other rain measurements)
** Current wind speed in m/s (hover to see current wind gust speed)